User: anonymous   Login
Location: Caltech
(34.1382°N, 118.1253°W)
Time: 17:33:49
(UTC-07:00)
Language:

Meteor 2-4 Rocket - Orbit

View from above orbital plane
View from above orbital plane
View from above satellite
View from above satellite

Ground track
Ground track

The orbit data is extracted from the following two-line orbital elements,

1 11289U 79021B   16178.09948941  .00000055  00000-0  22550-4 0  9995
2 11289  81.2460 151.5408 0076095 162.9466 197.4290 14.11540839920604
Epoch (UTC): 26 June 2016 02:23:15
Eccentricity: 0.0076095
inclination: 81.2460°
perigee height: 799 km
apogee height: 909 km
right ascension of ascending node: 151.5408°
argument of perigee: 162.9466°
revolutions per day: 14.11540839
mean anomaly at epoch: 197.4290°
orbit number at epoch: 92060

The dashed part of the orbit path shows where the satellite is in the earth's shadow,  

DLR